Regional Weather Roundup
Issued by NWS

Home | Current Version | Previous Version | Text Only | Print | Product List | Glossary On
Versions: 1 2 3 4 5 6 7 8 9 10 11 12 13 14 15 16 17 18 19 20 21 22 23 24 25 26 27 28 29 30 31 32 33 34 35 36 37 38 39 40 41 42 43 44 45 46 47 48 49 50
000
ASUS43 KLSX 101807
RWRMO

WEATHER SUMMARY FOR MISSOURI
NATIONAL WEATHER SERVICE SPRINGFIELD MO
1200 PM CST SUN DEC 10 2017

NOTE: "FAIR" INDICATES FEW OR NO CLOUDS BELOW 12,000 FEET WITH NO
       SIGNIFICANT WEATHER AND/OR OBSTRUCTIONS TO VISIBILITY.
       CURRENT SKY AND/OR WEATHER CONDITIONS ARE NOT AVAILABLE FOR
       CHILLICOTHE AND FARMINGTON.

MOZ001>031-035>038-043-044-053-054-101900-
...NORTHERN AND WESTERN MISSOURI...

CITY           SKY/WX    TMP DP  RH WIND       PRES   REMARKS
KANSAS CTY INT MOSUNNY   52  25  35 NW12      30.11F
6HR MIN TEMP:  28; 6HR MAX TEMP:  52;

KANSAS C DTWN  SUNNY     52  26  36 W14       30.11F
6HR MIN TEMP:  31; 6HR MAX TEMP:  52;

LEE`S SUMMIT   SUNNY     51  25  36 W10G21    30.11F
6HR MIN TEMP:  32; 6HR MAX TEMP:  51;

ST JOSEPH      SUNNY     50  27  40 NW16      30.12F
6HR MIN TEMP:  29; 6HR MAX TEMP:  50;

CHILLICOTHE      N/A     48  25  40 W12       30.08R
6HR MIN TEMP:  28; 6HR MAX TEMP:  48;

KIRKSVILLE     SUNNY     45  27  49 NW10      30.03R
6HR MIN TEMP:  26; 6HR MAX TEMP:  45;


$$
MOZ066>068-077>081-088>096-101>105-101900-
...SOUTHWEST MISSOURI...

CITY           SKY/WX    TMP DP  RH WIND       PRES   REMARKS
SPRINGFIELD    SUNNY     51  23  33 W15G22    30.14S
6HR MIN TEMP:  26; 6HR MAX TEMP:  52;

JOPLIN         SUNNY     50  26  39 W9        30.19F
6HR MIN TEMP:  37; 6HR MAX TEMP:  51;

BRANSON        MOSUNNY   54  21  28 W8G17     30.16S

$$
MOZ032>034-039>042-045>050-055>058-069>072-101900-
...CENTRAL MISSOURI...

CITY           SKY/WX    TMP DP  RH WIND       PRES   REMARKS
COLUMBIA       SUNNY     48  25  40 W12       30.05F
6HR MIN TEMP:  27; 6HR MAX TEMP:  48;

JEFFERSON CITY SUNNY     49  25  39 W16       30.06F
6HR MIN TEMP:  27; 6HR MAX TEMP:  49;

ROLLA          SUNNY     50  25  37 W17       30.05F
6HR MIN TEMP:  25; 6HR MAX TEMP:  50;

SEDALIA        SUNNY     50  27  40 NW13G21   30.10F
6HR MIN TEMP:  32; 6HR MAX TEMP:  50;

WHITEMAN AFB   MOSUNNY   50  25  37 NW13      30.06F
WARRENSBURG    SUNNY     50  25  37 W7        30.10F
OSAGE BEACH    SUNNY     50  25  37 W13       30.09F

$$
MOZ051-052-059>065-101900-
...EAST CENTRAL MISSOURI...

CITY           SKY/WX    TMP DP  RH WIND       PRES   REMARKS
ST LOUIS INTL  PTSUNNY   46  24  42 W16       30.02S
6HR MIN TEMP:  24; 6HR MAX TEMP:  47;

SPIRIT OF STL  PTSUNNY   49  24  37 SW15G21   30.02S
6HR MIN TEMP:  25; 6HR MAX TEMP:  49;

ST CHARLES     CLOUDY    44  23  43 W17       30.01F
6HR MIN TEMP:  16; 6HR MAX TEMP:  44;


$$
MOZ072>076-082>087-097>100-106>115-101900-
...SOUTH CENTRAL AND SOUTHEAST MISSOURI...

CITY           SKY/WX    TMP DP  RH WIND       PRES   REMARKS
CAPE GIRARDEAU SUNNY     44  26  49 S15G28    30.11F
6HR MIN TEMP:  19; 6HR MAX TEMP:  44;

FARMINGTON     SUNNY     48  24  39 SW14      30.05F
6HR MIN TEMP:  22; 6HR MAX TEMP:  48;

POPLAR BLUFF   SUNNY     47  28  47 SW15      30.12F
6HR MIN TEMP:  23; 6HR MAX TEMP:  47;

WEST PLAINS    SUNNY     50  23  34 W12       30.11F
6HR MIN TEMP:  24; 6HR MAX TEMP:  50;


$$



USA.gov is the U.S. government's official web portal to all federal, state and local government web resources and services.